Theta_e
339 339 338 338 337 337 336 332 328 327 328 329 331 333 334 333 332 334 333 332 335 337 336 334 333 334 334 333 334 333 333 333 332 331 331 328 324 324 325 325 325 325 327 327 327 326 325 325 325 325 325 324 324 323 323 323 322 323 323 323 323 323 323 323 323 322 322 322 322 323 323 323 322 323 323 322 323 324 324 324 323 322 320 321 322
339 339 339 338 337 336 336 335 333 330 329 329 330 334 336 335 335 337 336 334 335 336 335 334 333 334 334 334 333 333 332 332 331 331 331 329 327 328 326 324 322 324 327 327 327 327 326 326 326 326 325 324 323 323 323 323 322 322 322 322 322 322 322 322 322 322 322 322 322 322 322 322 322 323 323 322 323 324 324 324 324 324 322 321 321
340 339 339 339 337 336 336 335 335 333 332 330 330 332 334 335 336 336 337 336 336 336 335 333 333 333 334 334 334 333 332 332 332 331 331 330 329 329 326 323 320 322 327 327 326 327 326 325 325 325 324 323 323 323 323 323 322 323 322 322 322 323 322 322 322 321 321 321 321 321 321 321 322 322 323 323 323 323 324 325 325 324 324 322 321
340 339 338 339 338 337 335 335 335 334 334 333 331 331 332 335 335 335 336 337 336 336 335 334 333 333 334 334 334 333 332 332 332 331 331 330 330 329 327 324 319 321 326 325 325 327 326 325 325 324 324 324 323 323 323 323 323 323 322 322 323 323 323 323 322 321 320 319 319 320 321 321 322 322 322 323 323 323 324 324 325 325 324 323 321
339 339 339 339 338 338 337 335 335 334 334 334 333 331 332 335 336 335 336 336 336 336 336 334 333 333 333 334 334 333 333 332 332 332 331 331 330 329 330 326 321 322 323 323 325 326 326 325 325 324 324 324 324 324 323 322 322 322 321 323 324 324 324 324 323 323 321 319 319 320 321 321 321 323 322 322 322 323 323 323 324 325 324 323 322
338 338 338 337 337 337 337 337 335 334 334 333 333 332 332 333 335 335 336 336 336 336 336 335 333 333 333 333 334 333 334 333 332 332 331 331 331 330 331 329 327 325 322 322 324 326 326 325 324 324 324 325 324 325 323 321 322 322 322 324 324 324 324 324 324 324 323 320 318 318 319 320 321 322 322 323 322 322 322 322 323 324 324 323 322
337 337 337 337 337 337 337 337 336 335 334 333 332 332 332 332 333 335 336 336 336 336 336 334 332 332 332 333 333 332 333 333 332 333 332 332 331 331 332 330 330 328 323 321 322 325 325 324 325 324 324 325 324 324 322 319 320 322 324 325 324 325 324 324 325 324 323 321 320 317 317 319 321 322 322 322 322 322 322 322 322 324 324 324 323
337 337 338 339 338 337 337 337 336 336 335 333 332 333 332 332 332 333 335 336 335 336 336 334 333 333 333 332 332 331 332 333 333 333 332 333 332 332 332 331 331 330 327 322 320 323 324 323 324 325 325 325 324 324 320 317 318 321 325 325 325 326 325 325 325 324 323 322 320 318 317 319 320 321 322 322 323 323 323 323 323 324 324 324 324
338 338 338 339 338 337 336 338 337 336 336 335 334 334 333 332 333 332 333 335 335 336 336 335 334 333 333 332 332 333 333 333 334 334 333 333 333 332 332 332 331 330 330 326 322 322 322 322 323 325 325 322 322 323 318 316 319 322 325 325 325 326 325 325 325 324 324 323 322 318 317 320 322 321 322 322 323 323 323 323 323 324 325 324 324
338 337 337 336 336 336 335 337 337 336 336 335 335 335 334 333 333 333 333 334 334 334 335 335 334 333 333 332 333 333 332 333 334 334 334 333 333 332 333 332 331 331 330 329 327 322 319 318 319 321 321 316 317 320 316 318 322 323 325 326 325 326 326 326 326 325 324 325 325 320 316 320 322 321 323 323 323 324 323 323 323 324 324 324 325
336 337 336 335 335 336 336 336 337 336 336 336 336 335 335 334 334 333 333 334 334 333 334 334 333 332 332 332 334 334 333 333 334 335 334 333 333 333 333 332 331 331 330 329 329 322 313 312 314 314 313 310 313 316 317 321 324 324 326 327 327 327 327 327 326 326 325 325 326 323 316 317 321 322 323 323 323 324 324 324 323 324 324 325 325
336 337 337 337 337 337 338 337 338 338 337 336 336 335 335 335 335 334 334 334 334 333 333 333 333 332 332 332 333 334 333 332 333 334 335 334 334 333 333 332 331 331 330 329 330 324 314 312 312 309 308 309 311 314 318 323 325 326 328 328 328 328 328 328 327 326 326 325 325 324 319 317 320 322 322 323 323 324 324 324 324 324 324 324 324
338 338 338 337 336 336 337 337 338 337 337 335 335 335 335 335 335 335 335 334 334 333 333 333 332 332 331 331 332 332 333 333 333 333 334 334 333 333 333 333 331 330 330 329 329 327 320 317 315 311 309 311 313 316 320 324 326 328 328 328 328 329 329 328 328 326 325 325 325 325 322 317 319 321 322 323 323 323 323 324 325 324 325 325 324
339 339 338 338 337 336 336 337 337 337 337 336 335 335 335 336 336 335 335 335 334 334 333 332 332 331 330 331 332 332 331 332 333 333 332 333 333 333 333 333 332 331 330 329 329 329 326 324 321 317 315 316 318 319 321 324 326 328 329 329 329 329 330 328 327 327 325 326 325 325 323 318 319 322 322 323 322 321 322 323 324 324 325 324 323
338 338 338 338 338 338 338 338 338 337 337 336 335 335 335 336 336 335 334 334 334 334 334 333 332 332 331 332 334 334 333 331 331 332 332 333 333 333 333 332 332 331 331 330 330 330 329 327 325 323 322 322 324 324 325 326 327 328 328 329 329 329 330 328 327 326 325 325 325 325 323 319 320 322 321 321 321 320 321 322 323 323 324 323 323
337 337 337 338 338 338 338 337 337 336 336 336 336 336 335 336 335 334 333 334 334 333 334 333 332 332 332 332 332 333 334 333 331 332 333 334 334 333 333 333 332 331 331 331 331 330 330 329 327 326 327 327 327 326 327 327 327 328 328 328 329 330 329 329 328 326 324 325 325 325 324 320 320 321 321 321 320 320 319 319 320 321 321 321 319
337 337 336 337 337 337 337 337 337 336 336 336 336 336 335 335 335 333 332 333 334 333 333 332 332 332 332 332 332 333 334 333 332 334 334 334 334 333 333 333 332 331 330 330 331 331 330 330 329 328 329 329 329 328 328 327 327 328 328 328 328 329 329 329 328 326 324 324 324 325 324 321 320 320 321 320 319 320 317 315 317 320 320 318 311
338 337 336 336 337 337 336 336 337 337 337 336 336 336 336 336 335 335 334 334 334 333 331 331 331 332 331 331 332 333 333 332 334 336 335 334 334 333 333 333 332 331 331 330 330 331 330 330 330 329 329 329 329 329 329 328 327 327 327 327 328 328 329 329 327 325 324 323 323 324 324 323 321 320 321 320 320 318 314 312 316 320 318 313 306
338 337 337 336 336 336 336 335 335 335 336 335 335 336 336 336 335 335 335 333 333 333 331 330 331 331 332 331 330 331 332 331 332 335 335 334 333 334 334 333 332 332 332 331 331 331 331 330 330 330 329 329 329 330 330 330 329 328 327 327 328 328 329 329 327 325 324 323 322 323 324 323 322 321 321 320 320 316 310 311 316 318 315 312 310
336 336 337 336 335 334 335 334 334 334 335 335 335 335 336 336 335 335 334 331 330 332 332 331 332 331 332 332 329 329 331 330 331 332 334 335 334 333 334 333 332 332 332 332 332 332 331 331 330 330 329 329 330 330 330 330 330 329 328 327 327 328 328 328 326 324 324 323 322 322 324 324 323 322 321 321 319 313 310 312 314 315 313 313 313
335 335 335 336 335 334 334 333 333 334 334 335 334 334 334 335 334 335 334 332 331 332 332 331 332 332 332 332 329 329 330 331 330 329 330 334 335 333 332 332 333 332 332 332 332 332 331 330 330 330 330 330 330 330 330 330 329 330 329 327 327 328 327 328 325 323 323 323 323 323 323 323 323 322 321 322 317 310 312 314 312 313 313 313 315
335 334 334 334 334 334 334 333 333 333 333 333 334 334 334 335 335 334 334 333 332 332 331 331 332 332 332 331 330 330 330 329 330 329 330 333 334 333 331 332 333 332 332 332 332 332 331 330 330 330 330 330 330 330 330 329 329 329 328 327 328 327 327 328 324 320 322 324 323 324 323 323 324 322 322 322 315 310 313 314 312 313 313 314 315
333 334 334 333 333 332 333 334 334 333 332 332 333 335 335 334 334 334 334 333 332 332 331 331 332 332 332 331 330 330 330 329 330 330 330 332 334 333 331 331 332 331 331 332 332 332 331 330 330 330 331 331 331 331 329 329 329 328 328 327 328 327 327 326 319 315 320 322 322 324 324 324 323 322 322 321 316 311 313 313 313 313 312 314 313
332 332 333 333 333 332 332 333 333 334 333 333 333 334 334 333 333 333 334 333 333 332 331 331 332 332 332 331 330 330 331 331 331 331 331 333 333 332 331 331 332 331 331 332 332 332 331 331 330 330 330 331 331 331 330 330 329 329 328 328 327 327 324 317 310 312 317 319 321 324 325 324 323 322 321 320 315 311 311 313 313 313 313 314 313
330 331 332 333 333 332 332 332 332 333 333 333 333 333 334 333 333 333 333 333 333 332 330 330 331 332 332 331 331 331 331 332 332 332 333 332 331 331 331 332 332 331 331 332 332 332 332 331 330 330 330 330 330 330 330 330 329 329 328 328 327 326 320 309 308 314 318 319 321 325 326 324 323 322 320 319 315 311 312 314 313 312 312 313 313
325 327 330 331 331 332 332 331 332 332 332 333 333 333 333 333 333 333 333 333 333 332 330 330 330 331 330 331 332 332 333 333 333 334 332 329 329 331 331 331 331 330 330 331 332 332 332 331 330 331 330 330 330 329 330 330 329 329 329 328 327 325 317 308 309 317 321 321 321 324 326 323 322 321 319 318 315 310 312 314 310 308 308 308 310
324 325 327 328 329 330 331 331 331 330 330 331 331 332 332 332 333 332 333 333 333 332 330 329 330 331 330 330 332 331 332 334 334 335 334 331 331 330 331 331 331 329 328 330 331 331 332 331 330 331 331 330 329 329 330 330 329 329 328 328 327 323 316 308 309 317 322 321 321 324 325 322 322 320 318 318 313 308 311 310 303 301 301 301 305
323 324 325 326 328 329 329 330 330 330 330 330 330 330 331 331 331 331 332 332 333 333 331 330 331 331 330 331 331 329 331 333 334 334 334 333 333 331 331 331 330 331 329 329 330 330 331 331 330 331 331 331 329 329 330 330 329 329 328 328 326 321 315 308 309 318 321 320 320 322 323 321 322 319 317 317 309 304 308 306 299 298 298 298 301
321 322 323 324 326 327 328 329 329 329 329 329 330 330 329 330 330 331 331 331 331 332 332 332 332 332 332 332 332 331 331 333 333 333 333 333 333 331 332 330 329 331 331 330 330 329 330 331 330 331 331 330 330 329 329 329 329 329 328 327 324 319 315 308 307 316 320 319 318 319 321 321 321 318 315 313 305 300 305 303 298 298 298 298 300
318 319 320 321 322 324 326 327 327 328 329 329 329 329 329 329 330 330 330 329 329 330 331 332 332 332 333 332 333 333 332 332 332 332 332 333 333 332 331 330 328 329 330 330 330 329 330 331 330 331 330 330 330 329 329 329 329 329 328 327 323 318 315 308 305 313 318 317 314 317 320 321 320 316 310 306 301 298 302 301 298 298 298 298 299
316 316 318 319 319 321 322 322 323 326 328 328 328 329 328 328 329 329 329 329 329 329 329 330 331 331 332 332 332 333 333 333 333 332 332 332 333 332 330 329 328 329 329 330 331 331 330 331 331 330 330 330 329 329 329 329 329 328 328 326 322 317 314 309 305 308 315 315 312 313 317 319 318 313 305 301 300 299 301 300 298 298 298 298 299
313 314 315 316 317 317 318 318 319 321 323 325 328 328 328 328 328 329 329 328 328 328 328 329 330 331 330 330 332 333 332 333 332 332 332 333 333 331 329 329 329 329 329 328 330 331 330 330 330 329 330 330 329 329 329 328 328 328 328 327 324 318 314 310 304 305 310 311 310 310 311 312 310 307 303 300 299 300 301 299 298 298 298 298 298
311 312 313 313 314 314 314 315 316 317 319 321 324 325 325 326 327 329 329 328 328 328 329 330 330 330 330 329 330 332 332 333 332 332 332 333 333 331 329 328 329 330 330 328 329 329 328 328 328 328 329 329 329 329 329 328 328 328 327 326 325 321 315 310 305 303 306 307 307 307 307 305 304 304 303 300 299 301 300 298 298 299 298 299 299
309 309 310 310 311 311 311 311 312 314 316 317 317 318 318 319 321 324 327 328 328 328 329 330 329 329 330 329 329 331 332 333 332 332 332 332 332 331 329 328 329 331 330 328 328 328 327 328 328 328 329 329 329 328 328 328 328 327 326 324 323 319 314 308 305 303 304 306 306 305 304 303 302 302 301 300 300 301 299 298 298 298 298 299 299
308 308 308 308 308 308 308 308 308 310 313 313 313 313 313 313 315 317 321 324 326 328 329 329 328 327 329 330 329 330 331 332 333 333 333 332 332 332 331 330 329 330 329 328 328 328 327 327 327 328 329 329 328 328 328 328 328 327 324 322 321 317 312 307 304 303 304 305 306 305 303 302 301 301 300 300 300 300 299 298 299 298 299 299 299
307 306 306 306 306 306 306 306 306 307 309 310 309 310 309 309 310 313 316 319 323 326 328 328 328 327 328 329 329 330 330 331 332 332 333 333 331 331 331 332 331 329 328 328 329 329 327 326 327 328 328 329 328 328 327 326 326 325 322 320 319 318 316 312 305 302 304 305 306 305 302 300 300 300 300 300 300 300 299 299 299 298 299 299 299
306 305 305 304 305 304 304 304 304 305 307 307 305 305 305 306 307 309 312 315 319 323 326 328 328 327 328 328 329 329 330 331 332 332 332 332 331 330 330 331 332 330 328 328 329 329 327 326 327 327 328 328 327 327 326 325 324 322 319 318 318 319 320 319 311 304 304 304 306 306 302 300 300 300 300 300 300 299 299 299 299 299 299 299 299
305 304 304 304 303 303 303 303 302 303 305 304 301 300 301 303 305 307 309 313 316 319 323 326 328 328 328 329 328 328 328 329 330 331 331 332 332 332 331 331 331 331 330 329 329 327 327 327 327 327 327 327 327 327 326 326 323 320 317 316 318 319 321 322 317 310 307 305 306 306 303 300 300 300 300 300 300 300 300 299 299 299 300 299 299
304 304 303 303 303 302 302 301 301 302 303 301 298 298 298 300 302 304 307 310 313 317 320 324 326 328 328 328 329 328 327 328 329 329 331 332 332 332 332 332 331 331 330 330 329 327 326 327 327 327 326 326 327 326 325 323 322 319 317 317 318 319 320 322 319 313 309 307 306 307 304 301 300 300 300 300 300 300 300 300 300 300 300 300 299
303 303 303 303 302 301 301 301 300 301 301 299 297 297 297 297 299 302 305 308 310 313 317 321 325 327 328 328 329 328 328 329 328 327 330 332 332 332 332 331 331 330 330 330 329 328 327 327 327 326 326 326 326 326 325 322 320 319 318 318 318 318 318 320 320 316 313 310 307 306 305 301 300 300 300 300 300 300 300 300 300 300 300 300 300
303 303 303 303 302 301 300 300 299 299 300 298 297 297 296 296 297 299 303 306 307 310 314 319 322 325 327 328 328 328 328 328 328 327 329 331 332 332 332 332 330 331 330 329 328 328 327 327 326 325 325 325 325 326 325 322 321 320 319 318 318 319 318 317 318 317 316 313 311 307 305 302 300 300 300 300 300 301 300 299 300 300 300 300 300
303 303 303 303 302 301 300 299 299 299 299 298 297 297 297 297 297 298 302 306 307 309 312 315 319 323 325 327 328 327 328 328 327 327 328 330 331 331 331 331 331 330 330 327 326 327 327 326 326 326 325 325 325 326 325 324 323 322 320 318 317 318 318 315 315 317 315 314 313 311 308 304 301 300 300 300 300 300 300 300 301 300 300 300 300
302 302 302 302 302 300 300 299 299 299 298 297 297 297 298 299 299 300 303 306 308 309 310 311 316 321 323 325 327 327 327 327 327 327 328 328 329 330 330 331 331 330 329 327 327 327 327 326 326 326 326 324 325 326 325 325 324 323 322 320 317 316 316 314 313 315 315 314 316 316 312 306 301 300 300 300 300 300 300 301 301 300 301 300 300
301 301 302 302 301 300 300 299 299 299 298 297 297 297 298 300 302 303 304 305 307 308 308 309 313 318 321 324 326 327 327 327 327 327 328 328 328 329 330 330 330 330 328 328 327 327 328 327 326 326 326 325 325 325 326 325 324 324 323 321 318 316 315 314 313 314 314 314 315 317 314 308 303 301 300 300 300 300 300 301 301 301 300 300 300
300 301 301 301 300 300 299 299 299 298 298 297 297 297 298 299 302 303 302 302 305 308 309 310 313 316 319 322 324 326 326 326 327 327 328 328 328 328 329 330 330 330 329 327 327 327 328 328 327 326 327 327 326 325 326 326 325 324 323 322 319 316 314 314 314 314 313 314 315 315 312 309 306 303 302 302 301 300 300 299 300 300 300 300 300
300 301 300 300 299 299 298 298 298 298 297 297 297 297 297 299 301 302 300 300 303 306 307 310 312 314 317 320 323 325 325 326 327 328 328 328 328 329 329 329 329 329 328 327 327 327 327 327 327 327 327 327 327 326 326 326 325 324 324 322 321 318 315 314 315 314 313 313 314 313 310 309 308 306 304 304 302 302 302 301 300 301 300 300 300
300 300 300 299 299 298 298 298 297 297 297 296 297 297 298 298 299 300 299 299 300 302 303 306 308 310 312 316 320 323 325 325 326 327 328 328 328 328 328 328 329 328 326 326 327 328 327 326 326 327 326 325 326 326 325 325 325 325 324 324 322 320 317 315 314 314 313 313 314 312 311 310 309 307 305 305 305 306 305 305 304 302 301 302 305
300 300 300 299 299 298 297 297 297 297 296 296 296 297 297 298 298 298 298 298 298 299 300 301 303 306 308 310 313 317 321 324 326 327 328 328 328 327 327 327 327 326 325 326 327 328 328 327 326 326 325 324 325 326 325 325 324 323 323 323 322 320 317 315 315 315 314 313 313 312 314 311 309 308 307 307 307 308 307 306 305 305 305 306 308
300 300 300 299 298 298 297 297 297 297 296 296 296 296 297 297 297 297 297 297 298 298 298 299 300 303 305 306 307 310 313 318 322 325 327 328 327 326 325 325 325 325 325 325 327 328 328 327 326 326 325 325 325 325 326 326 325 323 323 322 322 320 318 318 317 316 315 315 314 314 315 311 309 308 307 307 308 308 307 307 307 306 306 306 305
300 300 299 299 298 298 298 297 297 296 296 296 296 296 296 296 297 296 296 297 297 297 297 298 298 300 303 304 305 306 307 311 316 320 323 326 327 325 324 323 323 322 322 323 324 325 325 325 325 326 325 325 325 325 326 326 325 323 323 322 322 320 319 319 318 316 315 316 316 316 315 311 309 309 308 307 307 307 306 306 305 304 304 304 303
299 300 299 299 298 298 298 298 297 296 296 296 295 296 296 296 296 296 296 296 296 297 297 297 297 298 300 302 304 304 306 309 313 316 319 323 326 326 324 323 322 321 321 322 322 322 322 322 322 322 323 322 323 325 326 325 323 323 323 322 322 321 320 318 316 316 317 316 316 316 314 310 309 310 309 308 306 305 305 304 304 304 304 304 303
Wind_Speed
8 11 11 10 9 9 7 7 8 11 14 14 13 12 10 9 10 10 10 10 10 11 12 10 10 9 7 7 6 5 10 11 8 6 5 4 5 6 7 8 9 10 10 9 8 7 8 8 8 9 9 9 9 10 10 11 11 12 12 12 12 12 12 12 12 11 11 11 11 12 12 12 13 14 15 15 16 17 17 18 19 19 18 18 17
8 10 11 12 12 12 11 11 11 11 13 15 16 14 13 13 12 11 11 10 11 13 12 10 13 11 7 8 9 3 6 10 7 7 7 6 6 4 4 6 8 10 10 9 8 7 9 8 7 9 9 9 9 10 10 11 11 11 11 12 12 12 12 11 11 11 11 11 11 12 12 12 12 14 14 15 15 16 16 17 18 18 19 18 17
10 10 10 12 14 14 14 14 15 15 14 15 17 17 16 17 16 15 14 14 14 16 12 8 11 13 10 10 11 8 6 6 7 9 9 8 6 4 3 4 6 9 11 10 9 8 8 8 7 8 9 9 10 10 11 11 12 12 12 12 12 11 11 10 10 10 10 10 11 12 12 11 12 14 13 13 15 16 15 16 17 17 17 18 18
12 13 12 12 13 15 16 17 17 18 17 17 18 19 18 19 20 17 16 17 16 17 14 9 10 11 12 12 11 12 10 5 7 10 10 9 7 5 3 4 5 9 11 11 11 10 8 9 9 9 9 10 10 11 11 11 12 12 12 12 12 10 10 9 9 9 9 9 10 12 12 12 12 13 12 12 13 14 14 14 15 16 16 17 19
14 13 13 13 13 15 17 19 20 20 20 19 20 20 18 17 19 19 18 18 16 16 15 13 12 10 10 12 11 11 11 8 7 10 10 8 7 6 3 3 5 8 10 10 12 11 9 10 10 9 10 10 11 11 11 11 12 12 12 12 11 10 10 9 8 8 8 9 11 11 12 12 12 12 12 12 13 13 13 13 14 15 16 16 18
14 14 13 13 14 16 18 20 21 22 22 22 21 21 20 17 16 18 19 18 17 16 14 14 15 12 9 11 14 11 10 11 9 9 10 9 7 6 4 4 5 6 8 10 12 12 11 11 10 10 11 11 11 11 11 12 12 12 12 12 11 11 10 9 9 8 8 9 10 10 11 12 11 11 12 12 12 13 13 14 14 14 15 16 17
15 15 16 15 15 17 18 19 20 22 23 23 22 21 22 19 16 16 17 18 19 16 13 13 15 12 8 10 14 13 11 13 12 9 8 9 8 8 6 6 5 5 7 9 11 13 13 11 10 11 11 11 12 12 12 12 13 13 12 11 11 11 11 10 9 8 9 9 9 9 10 11 11 11 11 12 12 12 13 15 14 13 13 15 16
17 18 19 19 18 18 19 18 19 21 22 23 23 22 22 21 18 17 16 16 18 17 14 14 14 10 7 8 12 13 12 14 14 12 9 8 9 9 8 8 7 6 7 9 11 14 14 11 11 12 12 12 12 12 12 12 13 13 13 12 11 11 11 11 10 9 9 9 8 8 10 11 11 10 11 11 11 11 12 13 13 13 13 14 15
18 19 21 21 19 19 19 19 19 20 21 22 23 23 23 23 21 19 16 15 17 18 17 16 17 14 10 12 13 12 14 14 14 15 12 10 10 10 11 10 9 8 8 8 10 13 14 13 13 14 13 13 12 12 13 13 14 14 13 14 13 12 12 11 10 10 9 8 7 8 10 11 10 10 12 12 12 11 11 12 12 12 13 14 15
17 19 20 19 17 18 20 20 20 20 20 22 23 24 24 24 23 20 18 16 17 18 18 17 19 18 15 17 17 13 16 16 14 14 14 14 13 13 12 11 10 11 10 9 10 12 13 14 14 15 15 13 14 14 14 15 15 14 14 13 13 12 11 11 10 10 10 9 7 7 9 11 12 12 12 12 11 11 11 11 12 12 13 15 15
16 18 19 19 18 18 20 22 22 21 21 22 23 24 24 25 24 22 20 18 17 17 17 17 18 18 17 19 20 17 15 15 14 14 15 16 16 15 13 11 12 13 13 12 11 11 12 14 15 16 15 15 15 16 16 17 16 15 13 12 12 11 10 11 10 10 10 9 9 7 8 11 13 12 11 11 11 11 11 11 11 12 13 16 16
16 18 19 19 18 19 21 22 22 22 22 23 24 24 25 26 26 24 22 20 18 17 16 16 16 16 16 18 20 17 13 13 14 15 16 17 17 16 15 14 15 14 15 15 13 11 11 13 15 16 16 17 17 17 18 18 17 15 13 12 12 11 10 10 10 11 11 10 10 8 8 10 13 11 10 11 11 11 11 10 11 12 13 14 14
16 18 19 19 19 20 21 22 22 22 23 25 26 25 25 25 26 25 23 21 21 19 17 15 13 12 12 15 19 19 15 14 15 16 17 19 19 18 17 17 16 13 15 17 14 12 12 13 15 16 18 18 19 19 19 18 17 15 13 13 13 12 11 11 11 11 11 11 11 10 8 10 14 13 10 10 11 10 10 11 12 12 13 13 11
16 18 19 20 20 20 21 23 24 24 24 25 26 26 26 25 25 25 23 22 22 21 19 15 12 12 10 8 11 15 15 15 16 16 17 19 19 18 18 18 16 14 16 18 15 14 14 15 16 17 18 19 19 19 19 19 17 15 14 13 12 12 12 11 11 11 11 12 12 11 10 11 14 13 9 10 11 10 10 11 12 13 12 12 10
16 17 19 21 21 22 23 24 24 24 24 24 25 26 27 27 26 26 23 21 21 20 20 19 17 13 8 3 3 5 8 12 15 17 19 19 19 19 18 18 17 16 17 18 17 17 16 16 17 18 18 19 19 18 18 19 18 16 15 13 12 12 12 12 12 11 11 12 13 13 12 12 14 13 10 9 10 10 10 10 11 11 11 11 10
14 16 18 19 20 21 22 23 23 24 24 25 26 26 27 27 27 25 22 20 21 21 21 22 21 15 6 2 2 1 2 6 11 17 21 20 19 19 19 19 19 18 18 18 19 18 18 18 19 19 19 19 19 18 18 18 18 18 16 15 13 13 13 12 12 13 12 13 13 14 14 13 14 14 11 9 9 9 10 9 10 10 10 9 8
12 14 15 16 18 20 20 21 21 22 24 25 26 26 25 26 26 25 25 24 24 23 22 23 25 22 14 5 2 2 3 4 7 13 20 21 20 20 20 20 20 20 20 20 20 19 19 20 20 20 19 19 19 18 18 18 18 19 18 16 16 15 14 14 14 14 13 14 14 14 15 14 14 14 12 10 8 8 8 9 10 10 10 9 8
11 12 13 15 17 19 20 20 21 22 24 25 25 26 25 26 27 27 28 28 26 22 19 21 24 25 24 16 8 5 3 4 3 4 12 19 20 21 21 20 21 21 20 21 21 21 21 22 22 21 20 21 20 19 19 18 18 19 19 18 18 17 16 16 16 15 14 15 15 15 16 16 15 14 13 10 9 8 9 11 11 10 10 10 9
11 13 14 15 17 19 20 19 21 23 23 23 23 25 26 27 27 28 29 29 26 23 19 19 21 22 26 25 17 9 6 6 4 2 3 9 15 19 20 20 21 22 22 22 21 22 22 23 23 22 21 22 21 20 19 18 18 19 19 19 19 19 18 18 17 16 16 16 16 16 17 16 15 15 13 11 9 9 11 12 12 11 11 11 10
12 13 14 15 15 16 17 16 19 23 23 23 23 24 25 26 26 28 29 27 26 25 22 20 21 20 23 26 23 19 14 11 10 7 2 3 7 13 17 19 21 22 23 22 22 23 23 23 23 23 22 22 21 21 20 19 19 19 19 19 20 21 20 20 19 18 17 17 17 17 17 17 16 15 14 12 10 10 12 12 12 13 12 11 11
12 13 14 15 15 16 17 16 18 22 22 23 24 24 23 24 26 28 28 27 28 28 25 24 24 23 22 23 23 22 19 16 14 11 7 5 4 5 11 14 16 21 25 24 23 23 23 23 23 23 22 22 21 21 21 21 21 20 19 20 21 22 22 22 21 20 19 19 18 18 18 17 16 16 15 13 11 11 13 13 13 13 12 12 12
13 14 15 16 17 17 18 17 16 18 19 20 21 22 22 24 26 27 28 27 27 27 27 28 27 26 24 22 22 20 14 11 13 13 11 8 5 5 10 13 11 17 25 27 25 23 22 23 24 24 24 23 22 21 21 21 21 20 20 21 23 24 25 24 22 21 21 21 19 18 18 18 17 16 15 13 12 13 14 13 13 13 13 13 13
16 17 17 17 17 17 17 16 15 16 17 18 19 20 21 22 22 23 25 25 24 25 28 29 27 27 26 24 25 25 20 16 17 17 13 8 5 4 10 16 14 16 23 27 26 23 22 23 25 25 25 25 23 21 22 21 21 20 21 22 24 26 25 23 22 21 23 23 21 20 20 19 18 16 14 13 13 14 14 14 13 13 13 13 12
20 19 18 18 19 19 17 17 17 16 16 17 18 20 21 21 20 21 23 25 24 24 26 27 27 27 27 26 27 28 27 24 22 22 21 18 11 5 7 13 13 13 19 23 25 24 23 24 25 25 25 25 24 23 22 22 22 21 21 23 26 26 24 22 21 21 22 23 23 22 21 19 18 17 15 15 15 15 15 14 13 13 13 13 13
23 22 21 19 19 19 20 18 18 17 16 16 18 19 20 20 19 19 21 22 23 23 25 26 27 28 30 29 27 26 26 25 23 24 23 20 13 7 9 12 10 10 14 17 21 24 24 25 25 25 26 26 25 24 23 24 23 21 22 25 26 26 23 21 22 21 21 22 24 24 22 20 19 17 16 16 16 16 16 15 15 15 14 14 13
24 24 22 21 20 20 21 20 18 18 17 16 17 19 20 20 19 19 20 21 21 22 24 25 26 29 30 29 28 27 26 25 24 24 21 18 16 12 9 9 8 9 10 13 18 19 21 25 26 25 26 27 27 25 25 25 23 22 23 26 28 26 23 22 22 22 22 23 24 24 23 20 20 19 18 18 17 16 17 17 17 16 16 15 14
24 23 23 23 23 22 21 21 20 20 19 18 18 19 20 20 20 20 20 20 19 20 21 23 25 27 28 29 28 29 29 26 25 24 22 22 23 21 14 7 4 5 6 8 14 18 21 23 26 28 27 27 28 27 26 26 24 24 25 27 28 26 24 23 24 24 24 25 25 25 23 21 21 20 20 19 18 17 19 18 18 17 17 17 16
23 23 23 24 24 24 24 23 22 22 21 19 18 18 20 21 21 21 20 20 21 22 21 22 23 26 28 28 27 28 30 29 28 26 24 23 23 23 21 14 8 4 3 5 8 14 20 21 23 27 29 29 29 28 28 27 25 25 26 28 29 27 25 25 25 25 26 26 25 25 24 23 23 22 21 21 19 19 19 18 17 17 17 17 16
24 23 23 23 23 24 24 24 23 24 23 21 19 19 20 20 20 20 19 20 22 23 23 23 24 26 27 28 27 27 29 29 30 29 27 24 22 23 24 22 16 7 3 5 5 8 17 22 22 25 29 30 29 29 30 28 27 27 27 29 30 27 26 26 26 27 27 26 26 26 26 26 25 23 22 21 19 19 20 18 18 18 17 17 16
25 25 24 24 24 23 24 25 25 25 24 23 22 21 21 21 21 21 21 20 20 21 22 23 24 25 26 27 28 28 28 29 29 29 28 26 25 25 24 22 20 13 7 5 7 11 18 23 25 26 28 31 31 31 31 29 28 28 28 30 30 28 27 27 28 28 27 27 26 27 28 28 27 24 22 21 20 20 20 19 19 18 18 17 16
25 25 25 25 25 25 25 26 26 26 25 25 24 24 23 22 22 23 23 20 19 21 23 24 25 25 26 27 27 28 28 28 28 28 28 28 26 24 22 20 20 21 16 8 4 11 19 23 26 28 29 32 33 32 32 31 29 30 30 30 29 27 27 27 28 29 29 28 27 27 29 28 27 24 22 21 20 21 21 20 19 19 18 18 17
26 25 25 25 26 27 27 27 27 27 27 27 26 25 24 23 22 22 23 20 19 22 24 26 26 26 27 27 28 29 28 27 28 28 27 27 26 23 23 24 23 24 22 13 5 8 16 21 24 28 31 33 34 34 34 33 31 31 31 30 29 28 28 28 29 30 29 28 28 28 28 28 26 24 22 21 21 22 22 21 20 20 19 18 17
27 26 26 25 26 27 27 28 27 27 28 29 27 26 25 25 23 22 23 23 22 22 25 26 26 25 26 27 27 27 26 25 26 27 27 27 26 24 24 26 27 26 25 20 12 8 11 15 18 24 31 34 35 35 35 35 34 33 32 31 30 29 29 29 30 30 31 29 28 28 28 27 25 23 21 21 22 23 22 21 21 20 20 19 18
28 27 27 26 27 27 27 29 28 27 28 28 26 26 26 26 25 22 23 24 23 23 24 25 24 23 25 28 28 28 26 26 26 27 28 27 25 25 26 29 31 30 27 24 17 11 12 14 16 23 31 33 34 35 36 36 36 36 35 34 32 30 29 30 30 31 31 30 28 28 28 28 26 24 22 22 23 24 23 22 21 21 20 19 18
29 28 28 27 28 28 28 30 29 28 27 25 25 29 30 30 29 26 23 22 22 24 24 23 21 22 24 26 28 30 28 25 26 27 28 27 25 25 28 30 31 29 25 23 20 17 17 16 16 21 30 33 33 35 37 36 36 36 35 34 32 29 28 29 30 31 31 30 29 28 28 28 27 25 24 23 24 25 24 23 22 21 20 19 19
29 29 29 28 28 29 29 30 30 30 27 25 29 33 35 35 34 31 27 23 21 22 24 24 22 21 24 26 26 29 28 25 24 26 28 28 27 28 29 29 29 26 24 25 26 23 20 19 18 22 30 32 29 30 35 34 34 36 35 33 31 28 27 28 29 30 30 29 28 27 28 28 28 27 25 25 25 25 24 23 22 21 20 20 19
30 30 31 30 29 29 29 28 30 29 27 28 34 39 39 38 36 33 30 27 23 20 21 23 23 22 24 27 27 26 26 25 24 26 29 29 28 29 30 29 29 27 25 28 28 23 20 21 22 22 24 24 20 23 30 32 32 34 33 31 31 29 28 28 28 28 29 28 27 27 27 28 28 27 26 26 26 26 25 24 23 21 21 20 20
30 31 32 32 30 29 29 28 28 27 26 30 38 43 43 40 37 34 32 29 26 22 19 20 22 24 25 27 28 27 26 25 25 25 27 30 30 31 30 29 30 28 27 28 25 21 20 20 20 16 15 20 21 22 27 32 34 34 30 27 29 31 31 31 30 29 28 28 28 27 27 29 29 28 27 27 27 26 25 24 23 22 21 21 20
31 31 31 31 31 30 29 28 28 26 25 30 39 43 44 43 38 35 32 30 28 25 21 19 21 23 24 25 27 28 27 27 27 26 27 28 29 31 31 31 30 28 26 26 23 21 21 20 18 15 15 22 26 25 26 27 27 28 28 26 26 28 31 33 32 31 30 29 29 28 28 28 29 28 27 27 27 27 26 24 23 23 22 22 21
31 31 30 30 31 32 30 28 28 26 24 30 39 42 43 43 40 36 32 30 28 26 24 20 19 21 23 24 25 26 27 28 30 30 30 29 28 29 31 30 28 28 28 27 24 23 23 22 19 18 18 21 24 25 24 23 21 24 28 29 28 29 31 32 32 31 30 31 31 30 30 30 30 30 29 28 28 28 26 24 24 23 23 22 21
29 30 28 28 31 33 32 30 29 27 26 31 40 43 42 41 40 37 32 29 28 26 24 22 20 19 21 23 24 26 27 28 30 31 31 31 30 29 30 30 29 29 29 27 25 24 23 21 20 21 21 21 25 27 26 26 29 32 32 29 27 29 31 31 31 32 29 28 31 33 32 32 32 32 31 31 30 29 27 25 25 24 23 23 21
29 29 27 27 30 32 32 32 31 28 28 35 42 45 44 42 39 36 33 29 26 25 24 22 20 19 20 22 24 25 26 27 28 30 32 33 32 31 31 31 32 32 29 25 24 25 24 21 21 22 21 19 25 31 32 34 34 33 33 30 25 26 28 26 26 30 31 29 30 33 33 32 33 33 33 33 31 29 28 27 26 26 24 23 21
30 29 27 27 29 30 30 31 31 28 31 39 46 47 48 46 40 35 31 27 24 24 23 22 20 20 20 21 23 24 25 26 27 29 33 34 34 33 32 32 34 34 30 27 26 27 26 23 23 25 22 21 26 32 34 37 34 30 33 34 28 25 26 23 18 23 31 33 31 32 34 33 33 34 34 33 32 30 29 28 27 26 24 22 20
30 29 28 27 28 30 29 30 30 30 34 42 47 48 50 48 40 34 31 29 27 26 24 22 21 21 21 21 22 23 25 25 26 29 31 33 34 34 31 32 35 34 33 32 31 30 29 28 26 27 27 25 27 30 32 35 35 33 32 34 32 29 29 27 22 23 31 36 34 32 33 33 33 34 35 34 33 31 29 28 27 25 24 22 20
30 29 29 28 28 29 29 30 30 30 34 42 47 48 51 50 43 37 34 32 30 29 27 25 23 22 22 21 22 23 24 24 26 28 30 31 32 31 30 31 34 33 32 34 34 35 35 32 28 29 32 31 28 31 35 37 36 33 30 30 31 30 29 31 31 30 33 35 35 32 30 31 34 34 33 31 30 31 30 28 27 26 25 23 19
31 28 27 28 29 29 29 30 30 29 34 42 46 47 50 51 47 42 37 33 31 30 28 25 23 23 23 22 23 24 25 25 26 27 29 30 30 31 31 32 32 31 31 33 36 38 36 32 30 31 32 31 30 32 34 34 34 34 32 31 31 31 33 36 36 36 35 35 36 30 23 25 31 29 27 27 26 27 27 26 25 24 23 21 18
30 27 26 27 28 30 30 30 30 30 33 41 45 46 48 49 48 45 41 37 34 33 31 29 27 24 21 19 19 22 25 26 28 28 28 28 28 29 31 31 32 29 25 26 31 34 34 31 32 32 28 28 30 28 25 26 29 34 37 36 33 32 34 34 32 30 32 36 38 29 17 18 26 25 21 22 22 20 19 18 18 19 19 19 19
28 26 26 26 27 29 30 31 32 32 34 40 44 45 46 47 47 46 44 40 37 37 36 33 31 29 25 21 18 17 19 21 25 28 29 28 27 27 27 27 28 27 23 20 23 27 30 28 28 28 26 27 29 24 21 23 26 29 32 32 30 29 26 24 22 22 26 31 33 28 19 17 23 23 18 16 16 15 15 15 16 18 21 22 20
27 26 26 26 26 27 29 31 33 34 35 39 43 44 45 45 44 43 44 42 37 37 37 34 32 32 29 25 22 20 17 15 19 25 29 30 28 27 26 24 24 24 24 23 23 25 28 28 26 26 24 24 27 24 21 23 26 27 27 25 27 29 25 18 14 16 20 23 27 28 24 23 24 24 22 21 21 24 24 24 24 23 22 21 20
25 26 26 27 27 28 29 31 32 34 36 39 42 43 44 44 42 39 41 43 38 36 37 36 35 35 32 28 26 25 22 17 18 22 26 31 31 28 26 25 23 23 24 23 22 23 24 24 23 23 20 20 23 24 21 22 26 28 28 26 28 31 29 22 17 17 16 18 24 27 25 25 28 29 29 27 24 27 30 28 27 26 24 22 21
24 25 25 26 29 29 29 31 32 33 35 38 41 42 42 43 43 39 39 42 40 36 37 37 37 37 36 33 31 29 27 22 20 21 24 30 31 28 28 28 25 24 25 25 24 24 24 22 20 20 19 18 19 20 20 22 24 25 26 27 27 28 26 24 23 19 11 11 21 28 26 27 32 34 34 26 15 15 24 28 27 26 25 24 24
Wind_Direction
214 211 216 216 215 219 217 213 211 225 226 217 216 213 216 226 226 228 239 247 250 273 276 240 207 207 218 220 219 221 209 202 198 193 179 159 149 140 151 169 172 164 164 165 158 158 160 154 145 146 146 142 141 137 134 131 128 129 128 125 123 121 119 117 114 111 108 107 104 102 100 98 99 99 96 97 96 92 89 86 85 85 91 101 103
231 222 225 225 221 219 217 217 216 221 227 225 222 224 229 232 232 233 240 249 254 270 272 237 213 212 217 213 209 195 190 203 210 205 194 179 166 152 164 180 178 169 167 169 169 163 160 162 152 148 152 151 147 142 139 137 135 133 132 131 129 128 127 123 119 116 114 111 109 107 104 101 102 104 100 99 101 99 94 89 87 84 85 92 98
246 239 235 231 228 224 218 215 215 216 220 226 226 229 236 237 234 231 232 240 251 258 256 226 208 212 223 223 218 210 189 200 222 219 202 185 173 158 163 180 183 174 173 179 177 167 163 166 164 160 161 157 151 148 145 145 142 139 141 140 134 131 128 124 122 123 120 117 116 112 109 105 105 107 108 105 104 104 99 92 89 87 86 87 90
239 242 244 238 232 228 223 216 214 215 218 225 228 230 235 236 236 234 229 233 245 249 245 227 207 215 227 226 226 220 212 226 232 216 199 183 170 152 150 169 180 182 185 187 174 170 179 173 172 173 167 162 159 157 154 154 151 149 149 142 133 129 124 118 117 120 121 119 117 114 111 109 108 109 112 113 110 107 103 97 93 90 90 91 90
235 238 244 243 239 235 231 225 219 218 220 223 228 230 232 233 236 236 231 236 244 244 247 242 221 231 238 218 208 208 219 235 218 203 194 182 174 165 163 169 172 184 190 186 171 173 186 177 175 176 168 169 166 163 164 160 158 157 152 141 136 134 128 123 118 115 118 117 118 118 117 115 112 111 110 112 113 111 109 104 98 94 94 96 95
236 237 242 245 245 242 237 233 227 223 225 228 230 231 230 233 236 232 231 238 243 243 251 243 229 242 252 215 200 197 219 228 204 192 193 186 181 182 199 202 185 186 188 189 178 178 194 189 180 179 174 174 171 168 170 166 162 161 155 147 144 140 133 130 126 120 115 112 116 122 123 120 117 116 113 112 110 110 112 109 106 102 100 100 99
229 232 236 239 240 240 237 236 232 228 231 233 233 231 229 232 233 229 232 239 242 246 248 235 230 246 261 228 216 214 223 222 202 186 189 194 194 198 215 214 203 194 188 195 187 184 199 198 184 182 180 179 177 175 175 170 167 163 159 155 149 144 140 137 134 128 120 112 112 118 123 121 120 124 119 114 111 108 110 114 116 109 103 104 102
221 224 224 227 231 240 241 238 235 233 233 233 231 231 230 231 233 231 234 245 246 245 238 225 222 237 254 227 221 227 223 214 205 197 195 201 203 207 218 216 213 207 193 197 194 194 201 195 185 186 186 186 182 180 179 173 170 168 164 160 157 154 150 145 140 132 126 121 115 116 121 118 117 125 123 119 117 113 115 119 119 110 106 111 110
219 221 223 226 230 240 243 242 241 238 235 233 233 233 233 235 235 231 232 246 250 243 236 228 226 228 232 220 219 235 232 219 209 206 206 206 206 210 216 217 215 211 207 205 199 202 205 196 192 193 192 193 185 181 181 174 173 172 166 163 164 163 157 149 145 141 137 131 121 114 119 120 120 125 124 120 118 116 118 121 118 111 110 113 115
220 220 226 231 235 241 244 244 245 244 241 239 238 237 237 238 237 231 228 239 245 242 236 232 232 233 231 222 215 220 233 232 216 206 209 211 213 214 216 219 217 215 216 213 206 207 208 203 201 200 199 195 185 182 182 176 176 175 169 168 168 165 159 152 152 152 147 141 134 121 120 126 128 126 123 120 120 118 117 120 120 117 113 111 113
224 225 228 231 231 235 242 246 246 246 246 244 242 240 239 239 240 235 228 232 239 242 240 232 229 232 233 226 216 210 226 239 226 211 210 212 215 211 210 211 213 222 223 214 208 207 206 205 203 202 200 192 184 182 182 179 180 180 175 174 173 169 167 165 165 161 155 153 151 139 126 129 130 126 128 128 124 120 116 119 124 122 118 115 113
221 227 231 234 233 234 240 245 247 248 246 245 246 245 243 241 242 239 234 235 237 240 243 237 228 230 236 232 222 218 229 239 227 220 217 212 212 211 208 203 201 217 224 214 207 205 205 204 199 197 194 188 184 184 185 184 184 184 182 183 183 182 182 178 175 168 164 164 162 154 137 134 137 135 136 135 130 125 119 121 126 127 125 122 120
216 221 230 236 238 239 241 243 247 250 249 249 249 250 249 246 244 242 240 240 240 240 240 233 224 225 235 236 229 229 237 235 221 223 227 219 215 216 213 205 201 209 214 209 206 207 208 204 197 193 191 187 185 186 189 190 188 189 192 194 195 195 194 190 183 174 170 173 171 162 150 142 142 143 146 142 137 133 126 124 127 131 131 128 127
220 224 230 235 238 239 239 240 244 249 252 253 251 249 249 250 246 242 241 241 242 241 234 222 212 211 216 230 238 237 240 237 223 222 231 225 218 218 216 209 202 199 202 203 206 211 213 207 198 192 190 189 188 189 194 197 195 194 200 205 204 202 200 194 185 177 176 179 177 168 159 150 143 145 154 150 143 140 133 128 131 133 133 132 130
227 229 232 235 238 238 238 240 243 247 252 255 253 248 247 249 246 241 237 237 240 241 234 224 216 207 199 200 234 236 238 243 235 227 230 228 219 217 216 210 201 194 199 206 210 214 216 210 202 197 194 194 196 198 200 203 204 203 208 211 207 202 197 189 182 178 181 183 180 173 165 156 149 149 153 152 150 148 142 138 140 141 137 136 135
242 240 240 241 243 245 246 247 247 249 252 253 252 250 248 247 246 242 237 232 233 236 233 225 215 203 186 156 178 188 222 229 227 228 228 225 220 217 216 212 204 199 203 210 213 215 217 213 208 207 205 203 205 209 210 211 210 211 213 213 207 199 192 188 181 177 182 184 182 178 169 161 153 151 155 160 162 159 155 152 151 148 141 143 146
260 258 257 256 256 257 255 253 253 251 248 247 248 250 249 247 246 244 240 233 230 230 228 222 216 209 200 178 155 212 232 194 198 222 225 221 220 219 217 214 208 205 208 213 215 214 216 216 214 215 216 215 215 217 218 217 215 214 214 212 208 199 189 186 181 177 182 183 183 181 172 164 157 157 164 171 172 173 171 163 157 150 146 154 161
284 276 270 267 266 262 257 257 259 254 249 249 248 246 246 246 244 243 241 237 232 228 223 221 222 217 212 211 204 180 162 157 163 214 220 220 222 218 218 219 212 208 209 214 218 215 213 215 216 218 220 222 222 220 219 216 214 215 214 212 206 199 190 184 180 179 182 182 184 183 175 169 166 169 174 176 180 186 179 165 156 152 152 159 160
295 287 281 276 274 272 270 271 270 264 258 257 254 249 248 249 247 243 240 238 233 228 223 221 221 219 220 224 224 209 178 166 179 197 204 217 221 217 219 221 214 211 210 212 218 218 215 214 216 217 216 219 219 217 217 215 213 213 213 210 203 197 190 182 179 182 182 182 185 185 179 175 174 176 178 181 190 190 175 163 157 158 160 157 152
302 297 295 289 281 280 281 281 278 275 272 269 264 258 254 256 255 248 243 238 230 227 225 220 215 216 223 226 228 233 229 211 205 213 214 202 214 216 218 220 219 217 215 213 216 219 217 216 216 214 213 215 214 214 217 216 215 213 211 207 199 196 190 181 183 187 181 181 185 186 184 179 179 181 182 188 195 185 169 163 163 165 164 156 151
321 315 310 301 293 290 289 286 281 280 281 278 274 269 263 263 261 255 254 248 234 227 227 225 220 218 221 221 222 230 233 228 222 221 226 218 196 208 210 212 221 222 218 216 218 220 219 217 217 215 213 214 213 213 214 215 216 214 210 205 197 195 188 183 190 190 181 182 185 187 185 179 181 185 185 191 194 178 168 169 169 167 165 159 155
337 331 325 316 309 305 302 300 293 288 288 284 282 282 276 270 267 263 263 255 236 226 226 228 227 224 222 215 213 218 218 224 229 222 227 230 205 198 197 193 208 219 217 217 218 220 219 217 216 214 213 214 214 214 211 212 215 213 207 200 196 194 189 190 197 190 181 183 185 187 185 178 182 188 187 192 190 175 172 174 171 168 166 162 160
347 341 336 332 329 322 315 309 304 301 300 294 290 288 283 280 281 277 273 265 248 233 227 227 229 228 226 218 213 215 208 207 215 208 211 220 199 193 200 197 205 215 217 218 218 219 219 217 215 213 214 215 215 214 212 211 213 211 204 197 195 194 192 196 200 191 184 183 183 187 186 179 183 189 189 189 184 175 175 174 172 171 168 164 163
357 352 344 337 337 336 328 317 312 309 306 302 296 292 291 290 288 282 277 271 260 243 229 225 227 228 228 225 221 221 217 214 213 207 210 212 201 190 193 196 207 218 220 219 217 218 218 215 215 215 214 214 214 214 213 211 212 210 203 198 196 195 195 200 199 191 186 182 181 187 187 183 185 188 188 186 183 178 174 173 174 173 169 165 163
357 356 351 342 339 343 340 332 323 316 307 300 296 294 294 292 289 285 280 273 263 246 231 226 228 229 230 228 225 224 224 222 217 212 214 213 207 205 193 191 196 207 214 213 212 217 218 214 215 218 217 214 214 214 213 212 212 210 204 199 196 195 198 200 196 189 182 178 182 188 187 184 185 186 186 186 186 180 173 174 176 173 169 167 166
353 354 355 350 345 345 344 341 336 328 316 302 294 292 293 293 291 289 284 279 268 247 233 229 232 232 230 227 223 221 222 223 220 218 217 214 214 210 194 193 197 194 201 206 205 211 215 215 215 217 218 216 214 213 212 212 213 208 203 199 195 197 201 199 194 189 182 181 185 188 187 186 187 187 185 187 189 181 175 178 180 176 174 171 169
353 354 354 352 352 351 349 346 343 339 331 317 304 295 295 296 294 290 286 282 269 247 233 230 233 236 235 231 226 223 222 222 221 220 218 218 218 210 195 182 195 204 204 203 207 213 213 210 212 216 218 216 215 213 210 212 213 205 202 199 195 198 203 200 195 190 186 186 189 188 188 189 191 191 187 189 191 183 181 185 183 180 178 175 173
358 357 353 350 351 353 352 350 346 342 337 329 320 309 303 300 297 296 290 277 266 255 244 234 234 238 240 238 233 230 230 228 224 221 219 221 222 217 207 194 185 193 207 202 212 222 215 206 207 214 217 215 215 213 209 211 210 202 200 199 197 200 203 200 197 193 190 191 191 189 189 191 196 197 192 193 194 188 188 189 184 182 182 179 177
2 359 355 352 351 351 351 350 348 344 339 335 331 323 317 309 301 297 291 279 270 264 255 246 241 242 244 243 240 238 237 234 228 226 226 224 221 221 218 211 200 184 176 206 213 220 215 207 203 208 212 213 213 210 209 210 207 201 199 200 200 203 204 202 199 197 195 195 193 191 189 192 198 201 198 197 196 192 191 189 185 184 184 183 182
6 3 360 357 355 353 352 352 351 347 343 341 337 330 325 318 307 300 295 287 278 271 263 254 247 245 244 242 241 241 240 238 233 231 231 228 222 221 222 216 208 201 191 200 213 214 209 205 206 207 206 207 209 208 208 209 207 203 201 201 203 206 205 203 202 200 199 198 196 192 190 195 202 205 204 201 198 195 192 188 188 188 187 187 186
7 4 2 360 358 357 354 353 355 355 350 346 342 336 331 323 313 307 304 296 282 274 268 258 251 247 244 242 240 238 237 237 236 234 232 231 227 222 219 213 210 213 211 195 201 216 207 203 206 207 203 202 205 205 206 208 207 204 204 203 205 208 207 205 204 202 202 201 199 196 196 200 205 208 207 203 199 196 192 189 191 191 190 191 189
9 5 3 1 359 358 355 354 356 357 357 354 348 341 335 328 320 313 310 303 289 281 272 261 256 251 246 245 243 238 236 234 234 235 233 232 230 224 222 222 219 219 218 207 199 220 214 209 206 202 199 198 200 201 202 205 205 204 207 208 208 209 208 207 206 204 204 204 203 202 203 205 208 207 205 204 201 197 193 192 193 194 194 194 192
12 8 5 2 360 359 358 358 357 356 360 1 357 351 345 338 330 318 311 306 297 289 276 262 256 252 247 246 245 241 236 233 233 234 231 230 232 229 226 226 224 221 217 211 210 219 223 224 216 203 195 193 195 198 200 201 201 202 206 210 211 210 209 209 207 205 204 205 207 207 207 209 209 207 206 206 203 198 195 195 195 197 198 197 196
14 12 7 3 1 360 360 0 359 360 3 5 4 3 359 353 345 332 320 310 300 293 281 265 257 255 250 246 244 240 234 230 230 232 231 229 229 227 221 217 219 220 217 212 208 202 205 214 215 203 192 190 192 195 199 201 200 200 203 207 210 210 211 211 209 207 206 207 209 209 209 210 210 208 208 209 206 200 198 198 198 199 200 200 200
16 14 10 6 4 3 3 3 1 4 6 2 359 359 357 354 351 346 339 324 307 297 285 269 259 257 251 245 245 242 235 230 229 231 233 231 225 223 220 216 217 216 213 214 213 203 195 196 203 197 187 188 192 193 199 204 200 197 200 205 208 209 210 213 212 209 207 208 210 211 211 211 210 210 209 209 208 203 200 201 200 201 203 203 203
18 16 12 10 8 6 5 4 2 5 6 359 354 354 353 351 349 347 345 340 325 308 291 276 268 263 253 244 244 245 239 232 229 228 230 230 227 226 226 225 225 217 208 215 219 211 199 191 200 205 193 188 191 192 195 200 199 197 198 203 207 207 208 211 212 211 210 210 212 212 213 213 211 210 210 210 209 206 203 204 203 203 205 205 206
19 16 14 13 11 9 8 5 3 5 6 360 356 355 352 350 348 344 342 340 336 324 302 284 276 272 260 248 243 244 240 234 230 226 225 226 226 227 227 226 229 224 209 210 214 211 204 195 197 207 201 190 187 190 193 195 195 195 197 202 206 206 208 209 209 211 213 213 214 214 214 214 213 212 211 211 210 209 207 207 206 207 208 209 209
20 17 16 15 13 11 9 8 5 5 5 1 359 358 355 351 347 343 339 336 334 331 316 294 283 278 270 257 247 244 241 236 232 227 224 223 223 224 226 225 227 226 216 213 213 208 207 205 194 184 189 194 193 194 201 200 194 191 192 199 203 204 207 208 208 210 212 214 215 216 215 214 213 213 212 211 213 213 211 209 209 210 211 212 212
21 18 17 17 16 13 10 10 9 8 7 2 360 357 355 352 348 343 338 333 331 329 321 307 293 284 275 263 252 245 241 238 235 232 228 226 225 225 225 225 223 222 219 219 219 211 205 206 193 168 174 192 192 194 202 201 194 189 188 190 194 199 205 208 208 209 211 213 215 217 217 215 214 214 214 214 215 215 214 213 213 214 214 215 215
20 19 18 17 17 15 13 11 9 9 8 3 359 356 353 351 348 343 338 331 327 325 320 312 299 287 278 269 259 249 242 238 236 234 230 226 227 227 226 224 220 219 219 217 217 213 205 203 195 180 180 184 183 188 195 191 189 194 195 192 191 194 200 206 210 211 211 213 214 215 215 214 214 214 214 216 217 217 216 215 216 217 216 217 217
19 18 18 18 18 16 16 14 11 10 8 2 358 356 354 351 346 341 336 330 324 320 317 312 302 290 280 273 264 252 246 241 238 237 233 227 226 227 227 223 217 217 218 212 208 209 204 199 193 185 183 181 180 185 189 188 193 198 197 194 194 196 197 201 208 212 214 213 212 213 214 213 213 213 214 216 217 217 217 217 218 218 218 218 218
20 18 18 19 19 17 16 15 13 13 9 2 360 0 358 355 349 343 337 330 323 316 311 308 302 293 284 276 266 256 251 248 243 241 239 233 229 230 230 226 219 215 212 206 204 206 203 198 192 185 181 180 182 186 190 194 197 196 193 193 197 198 195 194 201 209 214 214 210 210 213 213 213 214 216 218 218 216 217 217 218 218 218 218 218
23 20 19 20 20 18 16 15 14 13 8 3 3 4 3 1 356 350 345 338 329 319 308 300 296 294 289 282 271 261 256 254 249 244 241 238 235 232 231 232 228 220 213 207 205 204 201 198 196 192 186 186 188 190 193 196 196 193 192 193 197 197 191 188 192 202 209 213 210 208 210 212 212 214 217 219 219 218 217 218 218 218 218 218 218
24 23 23 22 20 18 17 15 14 12 7 5 6 7 6 6 3 360 358 351 342 333 319 305 297 295 294 289 276 262 255 253 249 244 242 240 238 234 233 236 235 228 221 217 214 209 205 201 199 196 194 194 193 193 195 197 196 196 194 192 194 196 192 189 191 196 204 209 208 205 206 208 211 215 218 220 220 220 220 221 220 219 219 218 218
24 25 25 25 23 20 19 15 13 11 6 6 9 9 8 8 7 8 5 356 350 345 334 318 306 300 297 294 284 269 259 255 251 247 244 241 239 237 234 233 235 233 227 222 220 218 212 204 199 201 202 199 196 199 203 202 196 195 195 194 197 198 195 195 197 198 200 202 202 199 199 205 211 214 217 220 222 223 224 224 224 222 221 219 216
25 25 26 25 24 21 18 14 12 10 7 8 11 11 10 9 9 10 8 3 358 355 349 339 328 315 306 301 291 278 266 256 251 248 244 239 236 236 232 229 231 233 227 219 217 220 219 211 210 212 208 202 203 206 208 204 196 194 196 200 203 203 202 202 203 201 199 199 200 195 191 203 209 209 211 216 221 225 227 226 225 224 220 212 201
25 26 26 23 20 19 16 13 12 11 9 10 13 13 12 10 10 12 12 9 4 1 1 359 355 345 331 320 305 286 272 260 251 245 240 234 231 230 228 225 224 225 222 211 209 217 220 216 218 222 216 211 211 209 203 200 200 203 205 207 209 209 207 204 200 198 196 197 198 191 175 189 200 196 198 210 215 217 218 218 215 208 195 185 176
26 26 26 22 19 19 18 16 15 12 10 11 13 14 13 11 10 12 13 11 5 3 4 3 1 360 353 345 332 305 285 268 253 246 239 233 228 222 217 216 216 217 215 203 199 210 216 214 218 222 218 215 215 210 203 199 200 203 205 206 210 207 198 190 182 181 187 191 193 187 164 163 185 183 173 183 190 178 166 162 162 165 162 158 154
27 26 25 22 20 18 18 17 14 11 10 11 12 13 14 13 11 10 11 11 7 3 4 3 3 4 2 356 348 332 313 287 258 250 243 232 225 217 209 203 203 204 205 201 196 203 211 212 213 215 214 214 215 215 212 206 200 196 188 183 190 190 181 172 162 160 170 178 186 188 170 155 170 170 147 140 148 141 133 134 138 141 143 142 138
29 28 26 22 19 16 14 14 12 9 9 10 11 13 14 14 13 10 9 10 8 4 3 4 4 5 6 4 357 346 332 306 268 255 246 232 221 213 202 192 187 188 192 193 189 190 198 202 203 204 204 203 205 205 203 200 200 200 193 183 178 176 171 166 153 141 145 157 169 176 164 150 158 158 138 127 129 132 133 136 138 139 137 135 133
30 30 26 23 20 17 14 12 11 9 8 8 11 13 14 15 15 12 9 9 7 4 3 4 4 5 6 7 3 355 342 318 281 261 249 233 220 210 200 190 183 180 182 182 176 169 170 172 173 177 178 179 185 187 188 190 190 194 201 199 189 180 172 161 149 141 131 141 159 164 156 148 152 152 143 134 125 132 143 143 142 143 141 138 138